QPF
0.00 0.00 0.00 0.00 0.00 0.00 0.00 0.00 0.00 0.00 0.00 0.00 0.00 0.00 0.00 0.00 0.00 0.00 0.00 0.00 0.00 0.00 0.00 0.00 0.00 0.00 0.00 0.00 0.00 0.00 0.00 0.00 0.00 0.00 0.00 0.00 0.00 0.00 0.00 0.00 0.00 0.00 0.00 0.00 0.00 0.00 0.00 0.00 0.00 0.00 0.00 0.00 0.00 0.00 0.00 0.00 0.00 0.00 0.00 0.00 0.00 0.00 0.00 0.00 0.00 0.00 0.00 0.00 0.00
0.00 0.00 0.00 0.00 0.00 0.00 0.00 0.00 0.00 0.00 0.00 0.00 0.00 0.00 0.00 0.00 0.00 0.00 0.00 0.00 0.00 0.00 0.00 0.00 0.00 0.00 0.00 0.00 0.00 0.00 0.00 0.00 0.00 0.00 0.00 0.00 0.00 0.00 0.00 0.00 0.00 0.00 0.00 0.00 0.00 0.00 0.00 0.00 0.00 0.00 0.00 0.00 0.00 0.00 0.00 0.00 0.00 0.00 0.00 0.00 0.00 0.00 0.00 0.00 0.00 0.00 0.00 0.00 0.00
0.00 0.00 0.00 0.00 0.00 0.00 0.00 0.00 0.00 0.00 0.00 0.00 0.00 0.00 0.00 0.00 0.00 0.00 0.00 0.00 0.00 0.00 0.00 0.00 0.00 0.00 0.00 0.00 0.00 0.00 0.00 0.00 0.00 0.00 0.00 0.00 0.00 0.00 0.00 0.00 0.00 0.00 0.00 0.00 0.00 0.00 0.00 0.00 0.00 0.00 0.00 0.00 0.00 0.00 0.00 0.00 0.00 0.00 0.00 0.00 0.00 0.00 0.00 0.00 0.00 0.00 0.00 0.00 0.00
0.00 0.00 0.00 0.00 0.00 0.00 0.00 0.00 0.00 0.00 0.00 0.00 0.00 0.00 0.00 0.00 0.00 0.00 0.00 0.00 0.00 0.00 0.00 0.00 0.00 0.00 0.00 0.00 0.00 0.00 0.00 0.00 0.00 0.00 0.00 0.00 0.00 0.00 0.00 0.00 0.00 0.00 0.00 0.00 0.00 0.00 0.00 0.00 0.00 0.00 0.00 0.00 0.00 0.00 0.00 0.00 0.00 0.00 0.00 0.00 0.00 0.00 0.00 0.00 0.00 0.00 0.00 0.00 0.00
0.00 0.00 0.00 0.00 0.00 0.00 0.00 0.00 0.00 0.00 0.00 0.00 0.00 0.00 0.00 0.00 0.00 0.00 0.00 0.00 0.00 0.00 0.00 0.00 0.00 0.00 0.00 0.00 0.00 0.00 0.00 0.00 0.00 0.00 0.00 0.00 0.00 0.00 0.00 0.00 0.00 0.00 0.00 0.00 0.00 0.00 0.00 0.00 0.00 0.00 0.00 0.00 0.00 0.00 0.00 0.00 0.00 0.00 0.00 0.00 0.00 0.00 0.00 0.00 0.00 0.00 0.00 0.00 0.00
0.00 0.00 0.00 0.00 0.00 0.00 0.00 0.00 0.00 0.00 0.00 0.00 0.00 0.00 0.00 0.00 0.00 0.00 0.00 0.00 0.00 0.00 0.00 0.00 0.00 0.00 0.00 0.00 0.00 0.00 0.00 0.00 0.00 0.00 0.00 0.00 0.00 0.00 0.00 0.00 0.00 0.00 0.00 0.00 0.00 0.00 0.00 0.00 0.00 0.00 0.00 0.00 0.00 0.00 0.00 0.00 0.00 0.00 0.00 0.00 0.00 0.00 0.00 0.00 0.00 0.00 0.00 0.00 0.00
0.00 0.00 0.00 0.00 0.00 0.00 0.00 0.00 0.00 0.00 0.00 0.00 0.00 0.00 0.00 0.00 0.00 0.00 0.00 0.00 0.00 0.00 0.00 0.00 0.00 0.00 0.00 0.00 0.00 0.00 0.00 0.00 0.00 0.00 0.00 0.00 0.00 0.00 0.00 0.00 0.00 0.00 0.00 0.00 0.00 0.00 0.00 0.00 0.00 0.00 0.00 0.00 0.00 0.00 0.00 0.00 0.00 0.00 0.00 0.00 0.00 0.00 0.00 0.00 0.00 0.00 0.00 0.00 0.00
0.00 0.00 0.00 0.00 0.00 0.00 0.00 0.00 0.00 0.00 0.00 0.00 0.00 0.00 0.00 0.00 0.00 0.00 0.00 0.00 0.00 0.00 0.00 0.00 0.00 0.00 0.00 0.00 0.00 0.00 0.00 0.00 0.00 0.00 0.00 0.00 0.00 0.00 0.00 0.00 0.00 0.00 0.00 0.00 0.00 0.00 0.00 0.00 0.00 0.00 0.00 0.00 0.00 0.00 0.00 0.00 0.00 0.00 0.00 0.00 0.00 0.00 0.00 0.00 0.00 0.00 0.00 0.00 0.00
0.00 0.00 0.00 0.00 0.00 0.00 0.00 0.00 0.00 0.00 0.00 0.00 0.00 0.00 0.00 0.00 0.00 0.00 0.00 0.00 0.00 0.00 0.00 0.00 0.00 0.00 0.00 0.00 0.00 0.00 0.00 0.00 0.00 0.00 0.00 0.00 0.00 0.00 0.00 0.00 0.00 0.00 0.00 0.00 0.00 0.00 0.00 0.00 0.00 0.00 0.00 0.00 0.00 0.00 0.00 0.00 0.00 0.00 0.00 0.00 0.00 0.00 0.00 0.00 0.00 0.00 0.00 0.00 0.00
0.00 0.00 0.00 0.00 0.00 0.00 0.00 0.00 0.00 0.00 0.00 0.00 0.00 0.00 0.00 0.00 0.00 0.00 0.00 0.00 0.00 0.00 0.00 0.00 0.00 0.00 0.00 0.00 0.00 0.00 0.00 0.00 0.00 0.00 0.00 0.00 0.00 0.00 0.00 0.00 0.00 0.00 0.00 0.00 0.00 0.00 0.00 0.00 0.00 0.00 0.00 0.00 0.00 0.00 0.00 0.00 0.00 0.00 0.00 0.00 0.00 0.00 0.00 0.00 0.00 0.00 0.00 0.00 0.00
0.00 0.00 0.00 0.00 0.00 0.00 0.00 0.00 0.00 0.00 0.00 0.00 0.00 0.00 0.00 0.00 0.00 0.00 0.00 0.00 0.00 0.00 0.00 0.00 0.00 0.00 0.00 0.00 0.00 0.00 0.00 0.00 0.00 0.00 0.00 0.00 0.00 0.00 0.00 0.00 0.00 0.00 0.00 0.00 0.00 0.00 0.00 0.00 0.00 0.00 0.00 0.00 0.00 0.00 0.00 0.00 0.00 0.00 0.00 0.00 0.00 0.00 0.00 0.00 0.00 0.00 0.00 0.00 0.00
0.00 0.00 0.00 0.00 0.00 0.00 0.00 0.00 0.00 0.00 0.00 0.00 0.00 0.00 0.00 0.00 0.00 0.00 0.00 0.00 0.00 0.00 0.00 0.00 0.00 0.00 0.00 0.00 0.00 0.00 0.00 0.00 0.00 0.00 0.00 0.00 0.00 0.00 0.00 0.00 0.00 0.00 0.00 0.00 0.00 0.00 0.00 0.00 0.00 0.00 0.00 0.00 0.00 0.00 0.00 0.00 0.00 0.00 0.00 0.00 0.00 0.00 0.00 0.00 0.00 0.00 0.00 0.00 0.00
0.00 0.00 0.00 0.00 0.00 0.00 0.00 0.00 0.00 0.00 0.00 0.00 0.00 0.00 0.00 0.00 0.00 0.00 0.00 0.00 0.00 0.00 0.00 0.00 0.00 0.00 0.00 0.00 0.00 0.00 0.00 0.00 0.00 0.00 0.00 0.00 0.00 0.00 0.00 0.00 0.00 0.00 0.00 0.00 0.00 0.00 0.00 0.00 0.00 0.00 0.00 0.00 0.00 0.00 0.00 0.00 0.00 0.00 0.00 0.00 0.00 0.00 0.00 0.00 0.00 0.00 0.00 0.00 0.00
0.00 0.00 0.00 0.00 0.00 0.00 0.00 0.00 0.00 0.00 0.00 0.00 0.00 0.00 0.00 0.00 0.00 0.00 0.00 0.00 0.00 0.00 0.00 0.00 0.00 0.00 0.00 0.00 0.00 0.00 0.00 0.00 0.00 0.00 0.00 0.00 0.00 0.00 0.00 0.00 0.00 0.00 0.00 0.00 0.00 0.00 0.00 0.00 0.00 0.00 0.00 0.00 0.00 0.00 0.00 0.00 0.00 0.00 0.00 0.00 0.00 0.00 0.00 0.00 0.00 0.00 0.00 0.00 0.00
0.00 0.00 0.00 0.00 0.00 0.00 0.00 0.00 0.00 0.00 0.00 0.00 0.00 0.00 0.00 0.00 0.00 0.00 0.00 0.00 0.00 0.00 0.00 0.00 0.00 0.00 0.00 0.00 0.00 0.00 0.00 0.00 0.00 0.00 0.00 0.00 0.00 0.00 0.00 0.00 0.00 0.00 0.00 0.00 0.00 0.00 0.00 0.00 0.00 0.00 0.00 0.00 0.00 0.00 0.00 0.00 0.00 0.00 0.00 0.00 0.00 0.00 0.00 0.00 0.00 0.00 0.00 0.00 0.00
0.00 0.00 0.00 0.00 0.00 0.00 0.00 0.00 0.00 0.00 0.00 0.00 0.00 0.00 0.00 0.00 0.00 0.00 0.00 0.00 0.00 0.00 0.00 0.00 0.00 0.00 0.00 0.00 0.00 0.00 0.00 0.00 0.00 0.00 0.00 0.00 0.00 0.00 0.00 0.00 0.00 0.00 0.00 0.00 0.00 0.00 0.00 0.00 0.00 0.00 0.00 0.00 0.00 0.00 0.00 0.00 0.00 0.00 0.00 0.00 0.00 0.00 0.00 0.00 0.00 0.00 0.00 0.00 0.00
0.00 0.00 0.00 0.00 0.00 0.00 0.00 0.00 0.00 0.00 0.00 0.00 0.00 0.00 0.00 0.00 0.00 0.00 0.00 0.00 0.00 0.00 0.00 0.00 0.00 0.00 0.00 0.00 0.00 0.00 0.00 0.00 0.00 0.00 0.00 0.00 0.00 0.00 0.00 0.00 0.00 0.00 0.00 0.00 0.00 0.00 0.00 0.00 0.00 0.00 0.00 0.00 0.00 0.00 0.00 0.00 0.00 0.00 0.00 0.00 0.00 0.00 0.00 0.00 0.00 0.00 0.00 0.00 0.00
0.00 0.00 0.00 0.00 0.00 0.00 0.00 0.00 0.00 0.00 0.00 0.00 0.00 0.00 0.00 0.00 0.00 0.00 0.00 0.00 0.00 0.00 0.00 0.00 0.00 0.00 0.00 0.00 0.00 0.00 0.00 0.00 0.00 0.00 0.00 0.00 0.00 0.00 0.00 0.00 0.00 0.00 0.00 0.00 0.00 0.00 0.00 0.00 0.00 0.00 0.00 0.00 0.00 0.00 0.00 0.00 0.00 0.00 0.00 0.00 0.00 0.00 0.00 0.00 0.00 0.00 0.00 0.00 0.00
0.00 0.00 0.00 0.00 0.00 0.00 0.00 0.00 0.00 0.00 0.00 0.00 0.00 0.00 0.00 0.00 0.00 0.00 0.00 0.00 0.00 0.00 0.00 0.00 0.00 0.00 0.00 0.00 0.00 0.00 0.00 0.00 0.00 0.00 0.00 0.00 0.00 0.00 0.00 0.00 0.00 0.00 0.00 0.00 0.00 0.00 0.00 0.00 0.00 0.00 0.00 0.00 0.00 0.00 0.00 0.00 0.00 0.00 0.00 0.00 0.00 0.00 0.00 0.00 0.00 0.00 0.00 0.00 0.00
0.00 0.00 0.00 0.00 0.00 0.00 0.00 0.00 0.00 0.00 0.00 0.00 0.00 0.00 0.00 0.00 0.00 0.00 0.00 0.00 0.00 0.00 0.00 0.00 0.00 0.00 0.00 0.00 0.00 0.00 0.00 0.00 0.00 0.00 0.00 0.00 0.00 0.00 0.00 0.00 0.00 0.00 0.00 0.00 0.00 0.00 0.00 0.00 0.00 0.00 0.00 0.00 0.00 0.00 0.00 0.00 0.00 0.00 0.00 0.00 0.00 0.00 0.00 0.00 0.00 0.00 0.00 0.00 0.00
0.00 0.00 0.00 0.00 0.00 0.00 0.00 0.00 0.00 0.00 0.00 0.00 0.00 0.00 0.00 0.00 0.00 0.00 0.00 0.00 0.00 0.00 0.00 0.00 0.00 0.00 0.00 0.00 0.00 0.00 0.00 0.00 0.00 0.00 0.00 0.00 0.00 0.00 0.00 0.00 0.00 0.00 0.00 0.00 0.00 0.00 0.00 0.00 0.00 0.00 0.00 0.00 0.00 0.00 0.00 0.00 0.00 0.00 0.00 0.00 0.00 0.00 0.00 0.00 0.00 0.00 0.00 0.00 0.00
0.00 0.00 0.00 0.00 0.00 0.00 0.00 0.00 0.00 0.00 0.00 0.00 0.00 0.00 0.00 0.00 0.00 0.00 0.00 0.00 0.00 0.00 0.00 0.00 0.00 0.00 0.00 0.00 0.00 0.00 0.00 0.00 0.00 0.00 0.00 0.00 0.00 0.00 0.00 0.00 0.00 0.00 0.00 0.00 0.00 0.00 0.00 0.00 0.00 0.00 0.00 0.00 0.00 0.00 0.00 0.00 0.00 0.00 0.00 0.00 0.00 0.00 0.00 0.00 0.00 0.00 0.00 0.00 0.00
0.00 0.00 0.00 0.00 0.00 0.00 0.00 0.00 0.00 0.00 0.00 0.00 0.00 0.00 0.00 0.00 0.00 0.00 0.00 0.00 0.00 0.00 0.00 0.00 0.00 0.00 0.00 0.00 0.00 0.00 0.00 0.00 0.00 0.00 0.00 0.00 0.00 0.00 0.00 0.00 0.00 0.00 0.00 0.00 0.00 0.00 0.00 0.00 0.00 0.00 0.00 0.00 0.00 0.00 0.00 0.00 0.00 0.00 0.00 0.00 0.00 0.00 0.00 0.00 0.00 0.00 0.00 0.00 0.00
0.00 0.00 0.00 0.00 0.00 0.00 0.00 0.00 0.00 0.00 0.00 0.00 0.00 0.00 0.00 0.00 0.00 0.00 0.00 0.00 0.00 0.00 0.00 0.00 0.00 0.00 0.00 0.00 0.00 0.00 0.00 0.00 0.00 0.00 0.00 0.00 0.00 0.00 0.00 0.00 0.00 0.00 0.00 0.00 0.00 0.00 0.00 0.00 0.00 0.00 0.00 0.00 0.00 0.00 0.00 0.00 0.00 0.00 0.00 0.00 0.00 0.00 0.00 0.00 0.00 0.00 0.00 0.00 0.00
0.00 0.00 0.00 0.00 0.00 0.00 0.00 0.00 0.00 0.00 0.00 0.00 0.00 0.00 0.00 0.00 0.00 0.00 0.00 0.00 0.00 0.00 0.00 0.00 0.00 0.00 0.00 0.00 0.00 0.00 0.00 0.00 0.00 0.00 0.00 0.00 0.00 0.00 0.00 0.00 0.00 0.00 0.00 0.00 0.00 0.00 0.00 0.00 0.00 0.00 0.00 0.00 0.00 0.00 0.00 0.00 0.00 0.00 0.00 0.00 0.00 0.00 0.00 0.00 0.00 0.00 0.00 0.00 0.00
0.00 0.00 0.00 0.00 0.00 0.00 0.00 0.00 0.00 0.00 0.00 0.00 0.00 0.00 0.00 0.00 0.00 0.00 0.00 0.00 0.00 0.00 0.00 0.00 0.00 0.00 0.00 0.00 0.00 0.00 0.00 0.00 0.00 0.00 0.00 0.00 0.00 0.00 0.00 0.00 0.00 0.00 0.00 0.00 0.00 0.00 0.00 0.00 0.00 0.00 0.00 0.00 0.00 0.00 0.00 0.00 0.00 0.00 0.00 0.00 0.00 0.00 0.00 0.00 0.00 0.00 0.00 0.00 0.00
0.00 0.00 0.00 0.00 0.00 0.00 0.00 0.00 0.00 0.00 0.00 0.00 0.00 0.00 0.00 0.00 0.00 0.00 0.00 0.00 0.00 0.00 0.00 0.00 0.00 0.00 0.00 0.00 0.00 0.00 0.00 0.00 0.00 0.00 0.00 0.00 0.00 0.00 0.00 0.00 0.00 0.00 0.00 0.00 0.00 0.00 0.00 0.00 0.00 0.00 0.00 0.00 0.00 0.00 0.00 0.00 0.00 0.00 0.00 0.00 0.00 0.00 0.01 0.01 0.00 0.00 0.00 0.00 0.00
0.00 0.00 0.00 0.00 0.00 0.00 0.00 0.00 0.00 0.00 0.00 0.00 0.00 0.00 0.00 0.00 0.00 0.00 0.00 0.00 0.00 0.00 0.00 0.00 0.00 0.00 0.00 0.00 0.00 0.00 0.00 0.00 0.00 0.00 0.00 0.00 0.00 0.00 0.00 0.00 0.00 0.00 0.00 0.00 0.00 0.00 0.00 0.00 0.00 0.00 0.01 0.01 0.01 0.01 0.01 0.01 0.00 0.00 0.00 0.00 0.01 0.01 0.01 0.01 0.01 0.01 0.00 0.00 0.00
0.00 0.00 0.00 0.00 0.00 0.00 0.00 0.00 0.00 0.00 0.00 0.00 0.00 0.00 0.00 0.00 0.00 0.00 0.00 0.00 0.00 0.00 0.00 0.00 0.00 0.00 0.00 0.00 0.00 0.00 0.00 0.00 0.00 0.00 0.00 0.00 0.00 0.00 0.00 0.00 0.00 0.00 0.00 0.00 0.00 0.00 0.00 0.01 0.01 0.01 0.01 0.01 0.01 0.01 0.01 0.01 0.01 0.01 0.01 0.01 0.01 0.01 0.01 0.01 0.01 0.01 0.01 0.01 0.00
0.00 0.00 0.00 0.00 0.00 0.00 0.00 0.00 0.00 0.00 0.00 0.00 0.00 0.00 0.00 0.00 0.00 0.00 0.00 0.00 0.00 0.00 0.00 0.00 0.00 0.00 0.00 0.00 0.00 0.00 0.00 0.00 0.00 0.00 0.00 0.00 0.00 0.00 0.00 0.00 0.00 0.00 0.00 0.00 0.00 0.00 0.01 0.01 0.01 0.01 0.01 0.01 0.01 0.02 0.02 0.01 0.01 0.01 0.01 0.01 0.01 0.01 0.01 0.01 0.01 0.01 0.01 0.01 0.01
0.00 0.00 0.00 0.00 0.00 0.00 0.00 0.00 0.00 0.00 0.00 0.00 0.00 0.00 0.00 0.00 0.00 0.00 0.00 0.00 0.00 0.00 0.00 0.00 0.00 0.00 0.00 0.00 0.00 0.00 0.00 0.00 0.00 0.00 0.00 0.00 0.00 0.00 0.00 0.00 0.00 0.00 0.00 0.00 0.00 0.00 0.01 0.01 0.01 0.01 0.01 0.01 0.01 0.02 0.02 0.02 0.01 0.01 0.01 0.01 0.01 0.01 0.01 0.01 0.01 0.01 0.01 0.01 0.01
0.00 0.00 0.00 0.00 0.00 0.00 0.00 0.00 0.00 0.00 0.00 0.00 0.00 0.00 0.00 0.00 0.00 0.00 0.00 0.00 0.00 0.00 0.00 0.00 0.00 0.00 0.00 0.00 0.00 0.00 0.00 0.00 0.00 0.00 0.00 0.00 0.00 0.00 0.01 0.01 0.01 0.01 0.00 0.00 0.00 0.00 0.01 0.01 0.01 0.01 0.01 0.01 0.01 0.02 0.02 0.02 0.01 0.01 0.01 0.01 0.01 0.01 0.01 0.01 0.01 0.01 0.01 0.01 0.01
0.00 0.00 0.00 0.00 0.00 0.00 0.00 0.00 0.00 0.00 0.00 0.00 0.00 0.00 0.00 0.00 0.00 0.00 0.00 0.00 0.00 0.00 0.00 0.00 0.00 0.00 0.00 0.00 0.00 0.00 0.00 0.00 0.00 0.00 0.00 0.00 0.01 0.01 0.01 0.01 0.01 0.01 0.01 0.00 0.01 0.01 0.01 0.01 0.01 0.01 0.01 0.01 0.01 0.02 0.02 0.02 0.02 0.02 0.02 0.02 0.02 0.01 0.01 0.01 0.01 0.01 0.01 0.01 0.01
0.00 0.00 0.00 0.00 0.00 0.00 0.00 0.00 0.00 0.00 0.00 0.00 0.00 0.00 0.00 0.00 0.00 0.00 0.00 0.00 0.00 0.00 0.00 0.00 0.00 0.00 0.00 0.00 0.00 0.00 0.00 0.00 0.00 0.00 0.00 0.01 0.01 0.01 0.01 0.01 0.01 0.01 0.01 0.01 0.01 0.01 0.01 0.01 0.01 0.01 0.01 0.02 0.02 0.02 0.02 0.02 0.02 0.02 0.02 0.02 0.01 0.01 0.01 0.01 0.01 0.01 0.01 0.01 0.01
0.00 0.00 0.00 0.00 0.00 0.00 0.00 0.00 0.00 0.00 0.00 0.00 0.00 0.00 0.00 0.00 0.00 0.00 0.00 0.00 0.00 0.00 0.00 0.00 0.00 0.00 0.00 0.00 0.00 0.00 0.00 0.00 0.00 0.01 0.01 0.01 0.01 0.01 0.01 0.01 0.01 0.01 0.01 0.01 0.01 0.01 0.02 0.02 0.02 0.02 0.02 0.03 0.03 0.03 0.03 0.02 0.02 0.02 0.02 0.02 0.01 0.01 0.01 0.01 0.01 0.01 0.01 0.01 0.01
0.00 0.00 0.00 0.00 0.00 0.00 0.00 0.00 0.00 0.00 0.00 0.00 0.00 0.00 0.00 0.00 0.00 0.00 0.00 0.00 0.00 0.00 0.00 0.00 0.00 0.00 0.00 0.00 0.00 0.00 0.00 0.01 0.01 0.01 0.01 0.01 0.01 0.02 0.02 0.01 0.01 0.01 0.01 0.01 0.01 0.02 0.02 0.02 0.02 0.02 0.03 0.05 0.05 0.04 0.03 0.03 0.03 0.02 0.02 0.02 0.02 0.02 0.01 0.01 0.01 0.01 0.01 0.00 0.00
0.00 0.00 0.00 0.00 0.00 0.00 0.00 0.00 0.00 0.00 0.00 0.00 0.00 0.00 0.00 0.00 0.00 0.00 0.00 0.00 0.00 0.00 0.00 0.00 0.00 0.00 0.00 0.00 0.00 0.00 0.01 0.01 0.01 0.02 0.02 0.01 0.01 0.02 0.02 0.02 0.01 0.01 0.01 0.02 0.02 0.02 0.02 0.03 0.03 0.03 0.04 0.07 0.06 0.05 0.04 0.04 0.03 0.03 0.03 0.03 0.02 0.02 0.01 0.01 0.01 0.01 0.01 0.01 0.01
0.00 0.00 0.00 0.00 0.00 0.00 0.00 0.00 0.00 0.00 0.00 0.00 0.00 0.00 0.00 0.00 0.00 0.00 0.00 0.00 0.00 0.00 0.00 0.00 0.00 0.00 0.00 0.00 0.00 0.00 0.01 0.01 0.01 0.02 0.02 0.02 0.02 0.03 0.04 0.04 0.03 0.02 0.02 0.02 0.03 0.03 0.03 0.04 0.04 0.05 0.07 0.11 0.07 0.05 0.04 0.05 0.03 0.03 0.02 0.02 0.02 0.02 0.01 0.01 0.01 0.01 0.01 0.01 0.01
0.00 0.00 0.00 0.00 0.00 0.00 0.00 0.00 0.00 0.00 0.00 0.00 0.00 0.00 0.00 0.00 0.00 0.00 0.00 0.00 0.00 0.00 0.00 0.00 0.00 0.00 0.00 0.00 0.01 0.01 0.01 0.01 0.01 0.02 0.03 0.03 0.03 0.03 0.05 0.08 0.04 0.03 0.02 0.03 0.03 0.04 0.04 0.05 0.05 0.06 0.09 0.12 0.08 0.06 0.06 0.05 0.04 0.04 0.03 0.03 0.02 0.02 0.01 0.01 0.01 0.02 0.02 0.02 0.01
0.00 0.00 0.00 0.00 0.00 0.00 0.00 0.00 0.00 0.00 0.00 0.00 0.00 0.00 0.00 0.00 0.00 0.00 0.00 0.00 0.00 0.00 0.00 0.00 0.00 0.00 0.00 0.01 0.01 0.01 0.02 0.01 0.01 0.02 0.04 0.05 0.04 0.05 0.07 0.08 0.05 0.03 0.02 0.03 0.03 0.04 0.04 0.05 0.05 0.08 0.10 0.12 0.09 0.08 0.07 0.07 0.07 0.05 0.04 0.03 0.03 0.03 0.02 0.02 0.01 0.02 0.02 0.02 0.01
0.00 0.00 0.00 0.00 0.00 0.00 0.00 0.00 0.00 0.00 0.00 0.00 0.00 0.00 0.00 0.00 0.00 0.00 0.00 0.00 0.00 0.00 0.00 0.00 0.00 0.00 0.00 0.01 0.02 0.02 0.02 0.01 0.02 0.03 0.04 0.05 0.05 0.06 0.07 0.07 0.05 0.03 0.02 0.02 0.03 0.03 0.03 0.04 0.05 0.08 0.11 0.12 0.09 0.08 0.08 0.09 0.08 0.06 0.04 0.03 0.03 0.03 0.03 0.02 0.02 0.02 0.02 0.01 0.01
MSLP
1017.64 1017.64 1017.64 1017.64 1017.64 1017.64 1017.56 1017.48 1017.40 1017.36 1017.28 1017.24 1017.20 1017.16 1017.08 1017.04 1016.96 1016.84 1016.72 1016.64 1016.60 1016.48 1016.32 1016.24 1016.20 1016.12 1016.04 1015.92 1015.92 1015.84 1015.76 1015.72 1015.68 1015.68 1015.64 1015.60 1015.48 1015.40 1015.28 1015.20 1015.20 1015.16 1015.08 1015.04 1015.04 1015.04 1015.04 1015.04 1015.04 1015.04 1015.00 1014.96 1014.92 1014.92 1014.80 1014.76 1014.72 1014.68 1014.64 1014.60 1014.48 1014.44 1014.36 1014.32 1014.24 1014.20 1014.16 1014.04 1013.96
1017.56 1017.56 1017.60 1017.64 1017.60 1017.56 1017.52 1017.44 1017.28 1017.20 1017.16 1017.08 1017.04 1017.00 1016.96 1016.92 1016.84 1016.76 1016.64 1016.52 1016.44 1016.32 1016.24 1016.20 1016.12 1016.08 1016.04 1015.96 1015.92 1015.88 1015.88 1015.80 1015.76 1015.72 1015.68 1015.64 1015.52 1015.40 1015.36 1015.24 1015.20 1015.08 1015.04 1015.00 1014.92 1014.92 1014.92 1014.92 1014.92 1014.88 1014.84 1014.76 1014.76 1014.72 1014.64 1014.52 1014.48 1014.48 1014.48 1014.40 1014.32 1014.24 1014.20 1014.20 1014.08 1014.04 1013.96 1013.92 1013.80
1017.56 1017.52 1017.56 1017.56 1017.56 1017.52 1017.48 1017.36 1017.20 1017.12 1017.04 1017.00 1016.92 1016.88 1016.80 1016.76 1016.72 1016.64 1016.48 1016.36 1016.28 1016.24 1016.20 1016.16 1016.04 1016.04 1015.96 1015.92 1015.84 1015.84 1015.84 1015.80 1015.76 1015.72 1015.64 1015.56 1015.48 1015.36 1015.28 1015.20 1015.12 1015.04 1015.00 1014.92 1014.88 1014.76 1014.76 1014.76 1014.76 1014.76 1014.68 1014.64 1014.60 1014.52 1014.44 1014.32 1014.32 1014.32 1014.32 1014.20 1014.08 1014.04 1014.00 1013.92 1013.84 1013.76 1013.76 1013.64 1013.64
1017.52 1017.52 1017.48 1017.48 1017.48 1017.44 1017.40 1017.28 1017.16 1017.08 1016.96 1016.88 1016.76 1016.76 1016.68 1016.64 1016.52 1016.44 1016.36 1016.32 1016.24 1016.20 1016.16 1016.08 1016.00 1015.92 1015.88 1015.84 1015.76 1015.72 1015.68 1015.64 1015.60 1015.56 1015.52 1015.44 1015.36 1015.24 1015.20 1015.16 1015.04 1015.00 1014.92 1014.84 1014.76 1014.68 1014.64 1014.64 1014.64 1014.60 1014.52 1014.48 1014.40 1014.32 1014.24 1014.16 1014.16 1014.12 1014.04 1013.96 1013.92 1013.84 1013.76 1013.68 1013.64 1013.56 1013.48 1013.48 1013.44
1017.48 1017.48 1017.48 1017.44 1017.36 1017.36 1017.28 1017.20 1017.12 1017.04 1016.88 1016.80 1016.72 1016.64 1016.52 1016.48 1016.40 1016.32 1016.28 1016.24 1016.20 1016.04 1016.00 1016.00 1015.96 1015.92 1015.80 1015.76 1015.68 1015.64 1015.56 1015.48 1015.48 1015.44 1015.40 1015.36 1015.24 1015.12 1015.04 1015.04 1014.96 1014.92 1014.76 1014.72 1014.64 1014.60 1014.48 1014.48 1014.48 1014.44 1014.36 1014.32 1014.24 1014.12 1014.00 1013.92 1013.92 1013.92 1013.84 1013.76 1013.64 1013.64 1013.56 1013.48 1013.40 1013.36 1013.28 1013.24 1013.16
1017.48 1017.44 1017.40 1017.36 1017.28 1017.20 1017.16 1017.04 1016.96 1016.88 1016.76 1016.64 1016.60 1016.52 1016.44 1016.32 1016.28 1016.24 1016.24 1016.20 1016.04 1015.96 1015.92 1015.92 1015.92 1015.84 1015.76 1015.68 1015.64 1015.60 1015.48 1015.36 1015.36 1015.32 1015.28 1015.20 1015.12 1015.04 1014.96 1014.92 1014.80 1014.72 1014.64 1014.56 1014.48 1014.44 1014.36 1014.36 1014.32 1014.20 1014.16 1014.04 1013.96 1013.88 1013.80 1013.76 1013.76 1013.76 1013.72 1013.60 1013.48 1013.40 1013.36 1013.28 1013.20 1013.12 1013.08 1013.04 1013.00
1017.48 1017.40 1017.36 1017.24 1017.20 1017.08 1017.00 1016.88 1016.76 1016.68 1016.64 1016.56 1016.52 1016.48 1016.36 1016.24 1016.20 1016.20 1016.16 1016.04 1015.92 1015.92 1015.88 1015.80 1015.76 1015.72 1015.68 1015.64 1015.56 1015.48 1015.40 1015.32 1015.24 1015.20 1015.16 1015.08 1015.00 1014.92 1014.88 1014.76 1014.64 1014.60 1014.48 1014.40 1014.36 1014.32 1014.24 1014.24 1014.16 1014.04 1013.92 1013.84 1013.72 1013.64 1013.60 1013.64 1013.64 1013.64 1013.56 1013.48 1013.32 1013.20 1013.16 1013.08 1012.96 1012.92 1012.92 1012.88 1012.84
1017.40 1017.36 1017.24 1017.12 1017.04 1016.96 1016.84 1016.72 1016.64 1016.56 1016.48 1016.44 1016.44 1016.36 1016.28 1016.20 1016.16 1016.08 1016.00 1015.92 1015.88 1015.76 1015.68 1015.64 1015.56 1015.52 1015.48 1015.48 1015.48 1015.40 1015.32 1015.20 1015.12 1015.04 1015.00 1014.96 1014.88 1014.76 1014.72 1014.64 1014.56 1014.48 1014.40 1014.28 1014.24 1014.16 1014.08 1014.04 1014.00 1013.88 1013.76 1013.64 1013.52 1013.36 1013.32 1013.36 1013.36 1013.36 1013.36 1013.24 1013.04 1012.92 1012.88 1012.84 1012.76 1012.72 1012.68 1012.64 1012.60
1017.32 1017.20 1017.08 1017.00 1016.88 1016.76 1016.68 1016.60 1016.56 1016.48 1016.48 1016.40 1016.32 1016.28 1016.20 1016.12 1016.04 1016.00 1015.92 1015.80 1015.68 1015.60 1015.48 1015.48 1015.36 1015.36 1015.32 1015.32 1015.28 1015.20 1015.12 1015.04 1014.96 1014.84 1014.76 1014.72 1014.68 1014.64 1014.52 1014.48 1014.40 1014.32 1014.20 1014.12 1014.08 1014.04 1013.92 1013.92 1013.76 1013.64 1013.52 1013.44 1013.28 1013.16 1013.04 1013.04 1013.08 1013.08 1013.04 1012.92 1012.84 1012.72 1012.64 1012.56 1012.52 1012.48 1012.48 1012.44 1012.40
1017.20 1017.08 1016.96 1016.84 1016.76 1016.64 1016.56 1016.52 1016.48 1016.48 1016.48 1016.36 1016.28 1016.20 1016.08 1016.04 1015.96 1015.88 1015.76 1015.68 1015.52 1015.48 1015.40 1015.36 1015.24 1015.20 1015.16 1015.12 1015.04 1014.96 1014.92 1014.80 1014.72 1014.64 1014.52 1014.48 1014.40 1014.32 1014.28 1014.20 1014.16 1014.04 1013.96 1013.92 1013.84 1013.80 1013.76 1013.68 1013.60 1013.44 1013.28 1013.20 1013.04 1012.92 1012.84 1012.80 1012.84 1012.80 1012.72 1012.64 1012.60 1012.48 1012.40 1012.32 1012.32 1012.28 1012.24 1012.20 1012.16
1017.08 1017.00 1016.92 1016.80 1016.72 1016.64 1016.56 1016.56 1016.48 1016.44 1016.36 1016.32 1016.20 1016.12 1016.04 1015.96 1015.84 1015.76 1015.64 1015.52 1015.48 1015.44 1015.28 1015.20 1015.16 1015.08 1015.04 1014.96 1014.88 1014.76 1014.68 1014.56 1014.44 1014.32 1014.24 1014.16 1014.08 1014.04 1013.96 1013.92 1013.84 1013.76 1013.64 1013.56 1013.52 1013.48 1013.48 1013.40 1013.32 1013.16 1013.04 1012.88 1012.80 1012.72 1012.64 1012.64 1012.64 1012.56 1012.48 1012.32 1012.28 1012.20 1012.16 1012.08 1012.04 1012.04 1012.00 1011.96 1011.92
1017.04 1016.92 1016.84 1016.76 1016.72 1016.64 1016.60 1016.60 1016.48 1016.44 1016.32 1016.24 1016.16 1016.04 1015.96 1015.84 1015.76 1015.64 1015.52 1015.48 1015.40 1015.28 1015.12 1015.04 1014.96 1014.92 1014.88 1014.76 1014.64 1014.52 1014.40 1014.32 1014.20 1014.08 1013.96 1013.88 1013.76 1013.72 1013.64 1013.56 1013.48 1013.40 1013.36 1013.24 1013.16 1013.12 1013.08 1013.04 1012.92 1012.84 1012.72 1012.60 1012.52 1012.44 1012.36 1012.32 1012.32 1012.28 1012.20 1012.04 1012.04 1011.96 1011.92 1011.80 1011.76 1011.72 1011.72 1011.68 1011.68
1017.00 1016.92 1016.88 1016.76 1016.72 1016.68 1016.64 1016.60 1016.48 1016.40 1016.32 1016.20 1016.04 1015.92 1015.80 1015.68 1015.56 1015.48 1015.36 1015.32 1015.20 1015.08 1014.92 1014.84 1014.76 1014.72 1014.64 1014.48 1014.40 1014.28 1014.16 1014.04 1013.92 1013.84 1013.72 1013.64 1013.52 1013.44 1013.36 1013.24 1013.12 1013.04 1012.96 1012.88 1012.80 1012.76 1012.72 1012.64 1012.56 1012.48 1012.40 1012.24 1012.20 1012.08 1012.04 1012.00 1012.00 1011.92 1011.88 1011.80 1011.76 1011.68 1011.60 1011.48 1011.48 1011.44 1011.40 1011.40 1011.40
1017.04 1016.96 1016.92 1016.80 1016.76 1016.72 1016.64 1016.56 1016.44 1016.32 1016.20 1016.04 1015.92 1015.76 1015.64 1015.48 1015.36 1015.28 1015.20 1015.16 1015.04 1014.92 1014.80 1014.68 1014.56 1014.48 1014.40 1014.28 1014.20 1014.08 1013.96 1013.84 1013.72 1013.60 1013.48 1013.36 1013.24 1013.16 1013.04 1012.92 1012.80 1012.72 1012.64 1012.48 1012.44 1012.36 1012.32 1012.24 1012.16 1012.08 1012.00 1011.92 1011.80 1011.72 1011.64 1011.64 1011.60 1011.56 1011.48 1011.44 1011.36 1011.28 1011.20 1011.16 1011.12 1011.12 1011.12 1011.12 1011.08
1017.04 1016.96 1016.88 1016.76 1016.76 1016.68 1016.60 1016.48 1016.32 1016.16 1016.04 1015.92 1015.76 1015.64 1015.48 1015.36 1015.20 1015.12 1015.04 1014.96 1014.92 1014.76 1014.64 1014.52 1014.40 1014.28 1014.16 1014.08 1014.00 1013.92 1013.76 1013.64 1013.52 1013.40 1013.24 1013.12 1013.00 1012.92 1012.80 1012.64 1012.52 1012.44 1012.32 1012.20 1012.08 1012.04 1011.96 1011.88 1011.76 1011.72 1011.64 1011.52 1011.44 1011.36 1011.28 1011.20 1011.20 1011.12 1011.04 1011.00 1010.92 1010.88 1010.76 1010.76 1010.76 1010.76 1010.76 1010.76 1010.80
1017.00 1016.92 1016.84 1016.76 1016.68 1016.60 1016.48 1016.40 1016.20 1016.04 1015.92 1015.80 1015.64 1015.52 1015.40 1015.24 1015.08 1015.04 1014.96 1014.84 1014.76 1014.64 1014.48 1014.40 1014.28 1014.12 1013.96 1013.88 1013.76 1013.68 1013.56 1013.44 1013.36 1013.20 1013.08 1012.92 1012.76 1012.64 1012.52 1012.40 1012.24 1012.12 1012.04 1011.92 1011.80 1011.72 1011.64 1011.48 1011.40 1011.36 1011.28 1011.16 1011.04 1010.96 1010.92 1010.80 1010.76 1010.68 1010.64 1010.56 1010.48 1010.44 1010.36 1010.32 1010.36 1010.36 1010.40 1010.40 1010.44
1017.00 1016.88 1016.76 1016.72 1016.64 1016.48 1016.40 1016.28 1016.08 1015.96 1015.84 1015.68 1015.56 1015.48 1015.36 1015.20 1015.04 1014.96 1014.88 1014.76 1014.64 1014.52 1014.40 1014.24 1014.16 1014.00 1013.84 1013.68 1013.60 1013.48 1013.40 1013.28 1013.16 1013.04 1012.88 1012.72 1012.56 1012.44 1012.28 1012.16 1012.00 1011.92 1011.80 1011.72 1011.60 1011.44 1011.32 1011.20 1011.04 1011.00 1010.92 1010.84 1010.72 1010.64 1010.56 1010.48 1010.36 1010.28 1010.20 1010.16 1010.04 1010.00 1009.96 1009.92 1009.92 1009.96 1010.00 1010.00 1010.00
1016.96 1016.84 1016.72 1016.64 1016.52 1016.40 1016.28 1016.20 1016.04 1015.88 1015.76 1015.64 1015.48 1015.36 1015.28 1015.16 1015.04 1014.92 1014.76 1014.64 1014.56 1014.48 1014.32 1014.16 1014.00 1013.88 1013.76 1013.56 1013.44 1013.36 1013.24 1013.08 1012.96 1012.80 1012.68 1012.52 1012.36 1012.24 1012.12 1011.92 1011.80 1011.68 1011.60 1011.48 1011.36 1011.20 1011.04 1010.88 1010.76 1010.68 1010.64 1010.52 1010.40 1010.32 1010.20 1010.12 1010.04 1009.92 1009.84 1009.76 1009.68 1009.64 1009.56 1009.48 1009.48 1009.48 1009.56 1009.56 1009.52
1016.92 1016.76 1016.64 1016.52 1016.44 1016.32 1016.20 1016.08 1015.96 1015.80 1015.68 1015.56 1015.44 1015.32 1015.20 1015.08 1014.96 1014.84 1014.68 1014.52 1014.44 1014.36 1014.24 1014.04 1013.88 1013.72 1013.60 1013.48 1013.32 1013.20 1013.04 1012.96 1012.80 1012.64 1012.48 1012.32 1012.20 1012.04 1011.92 1011.76 1011.64 1011.48 1011.40 1011.28 1011.12 1010.96 1010.80 1010.64 1010.52 1010.44 1010.32 1010.20 1010.12 1010.00 1009.88 1009.80 1009.72 1009.60 1009.48 1009.36 1009.32 1009.20 1009.16 1009.12 1009.08 1009.08 1009.04 1009.04 1009.04
1016.80 1016.68 1016.56 1016.44 1016.32 1016.20 1016.08 1015.96 1015.88 1015.76 1015.64 1015.48 1015.36 1015.24 1015.12 1015.00 1014.88 1014.76 1014.60 1014.40 1014.24 1014.16 1014.08 1013.92 1013.76 1013.56 1013.40 1013.24 1013.12 1013.00 1012.84 1012.76 1012.60 1012.44 1012.24 1012.08 1012.00 1011.84 1011.72 1011.56 1011.44 1011.32 1011.20 1011.04 1010.88 1010.72 1010.60 1010.44 1010.32 1010.20 1010.08 1009.96 1009.88 1009.76 1009.64 1009.48 1009.40 1009.28 1009.16 1009.04 1008.92 1008.84 1008.76 1008.72 1008.68 1008.64 1008.64 1008.64 1008.64
1016.72 1016.60 1016.48 1016.32 1016.20 1016.16 1016.04 1015.88 1015.76 1015.64 1015.52 1015.40 1015.32 1015.16 1015.00 1014.88 1014.72 1014.60 1014.48 1014.24 1014.08 1014.00 1013.92 1013.76 1013.64 1013.44 1013.24 1013.08 1012.92 1012.76 1012.60 1012.48 1012.32 1012.20 1012.04 1011.88 1011.76 1011.60 1011.48 1011.36 1011.20 1011.04 1010.92 1010.76 1010.64 1010.48 1010.32 1010.20 1010.08 1010.00 1009.88 1009.76 1009.64 1009.48 1009.36 1009.20 1009.08 1008.96 1008.84 1008.72 1008.60 1008.48 1008.36 1008.32 1008.28 1008.24 1008.20 1008.20 1008.20
1016.60 1016.48 1016.36 1016.24 1016.16 1016.04 1015.92 1015.76 1015.64 1015.56 1015.48 1015.32 1015.20 1015.04 1014.88 1014.72 1014.56 1014.40 1014.24 1014.08 1014.00 1013.88 1013.76 1013.60 1013.44 1013.28 1013.08 1012.92 1012.76 1012.60 1012.36 1012.20 1012.08 1011.92 1011.76 1011.64 1011.48 1011.32 1011.20 1011.08 1010.96 1010.80 1010.64 1010.48 1010.36 1010.24 1010.12 1010.00 1009.88 1009.76 1009.68 1009.56 1009.40 1009.24 1009.08 1008.96 1008.80 1008.64 1008.52 1008.40 1008.28 1008.16 1008.04 1007.96 1007.92 1007.84 1007.80 1007.80 1007.76
1016.48 1016.32 1016.24 1016.12 1016.04 1015.92 1015.80 1015.68 1015.56 1015.48 1015.36 1015.20 1015.04 1014.88 1014.72 1014.56 1014.40 1014.20 1014.04 1013.96 1013.84 1013.68 1013.52 1013.36 1013.20 1013.04 1012.92 1012.72 1012.60 1012.40 1012.20 1011.96 1011.80 1011.64 1011.48 1011.36 1011.20 1011.04 1010.92 1010.84 1010.76 1010.60 1010.40 1010.20 1010.08 1010.00 1009.88 1009.76 1009.64 1009.48 1009.40 1009.28 1009.08 1008.92 1008.76 1008.64 1008.48 1008.32 1008.20 1008.04 1007.92 1007.80 1007.68 1007.60 1007.52 1007.44 1007.36 1007.36 1007.32
1016.32 1016.24 1016.16 1016.04 1015.92 1015.80 1015.72 1015.60 1015.48 1015.36 1015.24 1015.04 1014.92 1014.76 1014.56 1014.40 1014.20 1014.04 1013.92 1013.76 1013.64 1013.48 1013.36 1013.20 1013.00 1012.84 1012.64 1012.48 1012.32 1012.20 1012.00 1011.76 1011.52 1011.28 1011.08 1010.96 1010.92 1010.76 1010.68 1010.60 1010.44 1010.24 1010.04 1009.92 1009.76 1009.72 1009.64 1009.52 1009.36 1009.20 1009.04 1008.92 1008.76 1008.56 1008.40 1008.24 1008.08 1007.92 1007.76 1007.64 1007.48 1007.36 1007.24 1007.16 1007.04 1006.96 1006.92 1006.88 1006.80
1016.28 1016.16 1016.04 1015.96 1015.88 1015.76 1015.64 1015.52 1015.40 1015.28 1015.08 1014.92 1014.76 1014.60 1014.40 1014.20 1014.04 1013.92 1013.72 1013.56 1013.36 1013.20 1013.04 1012.92 1012.72 1012.52 1012.36 1012.20 1012.04 1011.84 1011.68 1011.48 1011.24 1011.04 1010.76 1010.60 1010.48 1010.44 1010.32 1010.20 1010.04 1009.92 1009.76 1009.64 1009.48 1009.40 1009.36 1009.28 1009.12 1008.96 1008.80 1008.64 1008.44 1008.24 1008.04 1007.88 1007.68 1007.52 1007.36 1007.20 1007.04 1006.92 1006.76 1006.64 1006.56 1006.48 1006.44 1006.36 1006.32
1016.20 1016.08 1016.00 1015.92 1015.76 1015.64 1015.56 1015.44 1015.32 1015.16 1014.96 1014.76 1014.60 1014.40 1014.20 1014.04 1013.92 1013.76 1013.56 1013.36 1013.20 1013.00 1012.84 1012.68 1012.48 1012.32 1012.08 1011.92 1011.68 1011.48 1011.28 1011.16 1010.96 1010.76 1010.56 1010.32 1010.16 1010.04 1009.96 1009.92 1009.76 1009.60 1009.44 1009.32 1009.20 1009.08 1009.04 1008.96 1008.92 1008.80 1008.68 1008.48 1008.28 1008.04 1007.84 1007.60 1007.44 1007.28 1007.12 1006.92 1006.76 1006.64 1006.44 1006.24 1006.08 1006.00 1005.92 1005.88 1005.80
1016.12 1016.04 1015.92 1015.80 1015.68 1015.56 1015.44 1015.32 1015.16 1015.00 1014.84 1014.64 1014.48 1014.24 1014.04 1013.88 1013.72 1013.56 1013.36 1013.20 1012.96 1012.76 1012.60 1012.40 1012.20 1012.04 1011.80 1011.56 1011.36 1011.12 1010.96 1010.80 1010.64 1010.48 1010.28 1010.04 1009.92 1009.76 1009.64 1009.52 1009.40 1009.28 1009.16 1009.00 1008.92 1008.76 1008.68 1008.64 1008.52 1008.48 1008.44 1008.32 1008.12 1007.92 1007.64 1007.40 1007.20 1007.08 1006.92 1006.76 1006.56 1006.36 1006.16 1005.92 1005.80 1005.64 1005.52 1005.44 1005.36
1016.08 1016.00 1015.88 1015.76 1015.64 1015.48 1015.32 1015.16 1015.00 1014.84 1014.68 1014.52 1014.32 1014.08 1013.92 1013.76 1013.60 1013.40 1013.20 1012.96 1012.76 1012.60 1012.36 1012.16 1011.92 1011.76 1011.48 1011.24 1011.00 1010.80 1010.64 1010.48 1010.32 1010.16 1010.00 1009.80 1009.64 1009.48 1009.36 1009.20 1009.04 1008.92 1008.76 1008.64 1008.48 1008.36 1008.28 1008.20 1008.12 1008.04 1008.04 1007.96 1007.80 1007.64 1007.44 1007.20 1007.00 1006.80 1006.68 1006.52 1006.32 1006.16 1006.00 1005.76 1005.60 1005.44 1005.28 1005.20 1005.04
1016.04 1015.92 1015.80 1015.68 1015.52 1015.36 1015.16 1015.04 1014.88 1014.72 1014.52 1014.36 1014.16 1013.92 1013.76 1013.60 1013.40 1013.20 1013.00 1012.80 1012.60 1012.40 1012.20 1011.92 1011.64 1011.44 1011.20 1011.00 1010.76 1010.56 1010.40 1010.24 1010.04 1009.92 1009.76 1009.56 1009.36 1009.20 1009.04 1008.88 1008.68 1008.48 1008.32 1008.20 1008.08 1007.96 1007.84 1007.76 1007.64 1007.60 1007.52 1007.48 1007.40 1007.24 1007.04 1006.84 1006.64 1006.48 1006.32 1006.16 1005.96 1005.80 1005.68 1005.60 1005.40 1005.24 1005.12 1005.00 1004.84
1015.96 1015.88 1015.76 1015.60 1015.44 1015.24 1015.04 1014.88 1014.72 1014.52 1014.32 1014.16 1013.96 1013.76 1013.60 1013.36 1013.16 1012.96 1012.76 1012.60 1012.40 1012.20 1011.96 1011.72 1011.48 1011.20 1011.00 1010.76 1010.56 1010.32 1010.16 1009.96 1009.80 1009.64 1009.48 1009.28 1009.04 1008.84 1008.64 1008.48 1008.32 1008.12 1007.92 1007.76 1007.64 1007.52 1007.40 1007.28 1007.20 1007.12 1007.04 1007.00 1006.96 1006.80 1006.64 1006.44 1006.24 1006.08 1005.92 1005.76 1005.64 1005.52 1005.40 1005.24 1005.16 1005.04 1004.92 1004.76 1004.64
1015.92 1015.80 1015.68 1015.48 1015.32 1015.12 1014.92 1014.72 1014.56 1014.36 1014.20 1014.00 1013.84 1013.64 1013.48 1013.20 1013.00 1012.80 1012.64 1012.44 1012.20 1011.92 1011.72 1011.48 1011.28 1011.04 1010.76 1010.60 1010.40 1010.20 1009.92 1009.72 1009.52 1009.36 1009.20 1008.96 1008.72 1008.48 1008.28 1008.08 1007.92 1007.72 1007.52 1007.36 1007.20 1007.04 1006.92 1006.76 1006.68 1006.64 1006.56 1006.52 1006.48 1006.40 1006.20 1006.04 1005.84 1005.68 1005.52 1005.36 1005.24 1005.16 1005.08 1005.00 1004.88 1004.76 1004.64 1004.52 1004.40
1015.80 1015.72 1015.60 1015.40 1015.20 1014.92 1014.76 1014.56 1014.36 1014.20 1014.04 1013.88 1013.68 1013.48 1013.28 1013.04 1012.84 1012.64 1012.44 1012.24 1012.04 1011.76 1011.48 1011.24 1011.04 1010.76 1010.52 1010.32 1010.12 1009.92 1009.68 1009.48 1009.24 1009.04 1008.84 1008.64 1008.40 1008.16 1007.92 1007.68 1007.48 1007.28 1007.04 1006.88 1006.68 1006.52 1006.36 1006.28 1006.16 1006.08 1006.04 1006.00 1006.00 1005.92 1005.76 1005.60 1005.44 1005.24 1005.08 1004.96 1004.84 1004.76 1004.76 1004.64 1004.60 1004.48 1004.36 1004.28 1004.20
1015.76 1015.64 1015.48 1015.28 1015.04 1014.80 1014.60 1014.40 1014.20 1014.04 1013.92 1013.72 1013.48 1013.32 1013.08 1012.88 1012.64 1012.40 1012.20 1012.04 1011.84 1011.60 1011.28 1011.04 1010.76 1010.56 1010.32 1010.08 1009.84 1009.64 1009.40 1009.20 1008.96 1008.76 1008.48 1008.32 1008.04 1007.80 1007.52 1007.24 1007.04 1006.76 1006.56 1006.32 1006.20 1006.00 1005.84 1005.72 1005.64 1005.52 1005.48 1005.48 1005.44 1005.36 1005.20 1005.04 1004.92 1004.76 1004.64 1004.48 1004.44 1004.40 1004.36 1004.32 1004.28 1004.20 1004.08 1004.04 1003.96
1015.64 1015.48 1015.32 1015.12 1014.92 1014.68 1014.44 1014.28 1014.08 1013.92 1013.76 1013.52 1013.32 1013.08 1012.92 1012.76 1012.48 1012.20 1011.96 1011.76 1011.60 1011.36 1011.04 1010.84 1010.64 1010.36 1010.16 1009.92 1009.68 1009.40 1009.12 1008.88 1008.64 1008.40 1008.16 1007.92 1007.68 1007.44 1007.16 1006.84 1006.52 1006.28 1006.04 1005.88 1005.64 1005.48 1005.36 1005.20 1005.08 1005.00 1004.92 1004.92 1004.92 1004.76 1004.64 1004.52 1004.40 1004.20 1004.08 1003.96 1003.92 1003.92 1003.92 1003.88 1003.84 1003.80 1003.76 1003.72 1003.68
1015.52 1015.40 1015.20 1015.00 1014.76 1014.56 1014.32 1014.16 1013.92 1013.76 1013.60 1013.36 1013.12 1012.88 1012.68 1012.56 1012.32 1012.04 1011.76 1011.52 1011.32 1011.04 1010.80 1010.64 1010.40 1010.20 1009.92 1009.68 1009.44 1009.20 1008.92 1008.64 1008.32 1008.04 1007.76 1007.56 1007.32 1007.04 1006.72 1006.36 1006.04 1005.76 1005.52 1005.36 1005.16 1004.92 1004.76 1004.64 1004.52 1004.44 1004.36 1004.32 1004.32 1004.20 1004.04 1003.92 1003.80 1003.64 1003.52 1003.48 1003.40 1003.36 1003.36 1003.36 1003.36 1003.36 1003.36 1003.36 1003.36
1015.48 1015.36 1015.20 1014.92 1014.68 1014.44 1014.20 1014.04 1013.84 1013.64 1013.44 1013.20 1013.00 1012.76 1012.48 1012.28 1012.04 1011.84 1011.64 1011.36 1011.12 1010.88 1010.64 1010.32 1010.12 1009.92 1009.64 1009.36 1009.12 1008.92 1008.64 1008.36 1008.04 1007.72 1007.44 1007.20 1006.92 1006.64 1006.24 1005.84 1005.48 1005.20 1004.96 1004.76 1004.60 1004.40 1004.20 1004.04 1003.96 1003.88 1003.80 1003.80 1003.72 1003.64 1003.48 1003.36 1003.20 1003.08 1003.00 1002.92 1002.84 1002.76 1002.76 1002.84 1002.84 1002.84 1002.84 1002.88 1002.92
1015.44 1015.32 1015.12 1014.88 1014.60 1014.32 1014.16 1013.92 1013.76 1013.52 1013.28 1013.04 1012.84 1012.64 1012.36 1012.08 1011.80 1011.60 1011.40 1011.20 1010.96 1010.68 1010.36 1010.12 1009.88 1009.64 1009.36 1009.12 1008.84 1008.56 1008.28 1008.04 1007.76 1007.40 1007.04 1006.76 1006.52 1006.20 1005.84 1005.40 1005.04 1004.64 1004.40 1004.20 1004.04 1003.84 1003.68 1003.48 1003.36 1003.32 1003.28 1003.24 1003.16 1003.04 1002.92 1002.80 1002.64 1002.48 1002.40 1002.32 1002.24 1002.20 1002.20 1002.28 1002.32 1002.32 1002.32 1002.32 1002.36
1015.32 1015.20 1015.04 1014.84 1014.56 1014.32 1014.08 1013.88 1013.64 1013.44 1013.20 1012.92 1012.68 1012.48 1012.20 1011.96 1011.68 1011.44 1011.20 1011.04 1010.84 1010.52 1010.20 1009.88 1009.64 1009.36 1009.12 1008.88 1008.56 1008.24 1007.92 1007.64 1007.40 1007.12 1006.76 1006.40 1006.12 1005.76 1005.44 1005.04 1004.60 1004.20 1003.88 1003.64 1003.48 1003.28 1003.04 1002.92 1002.76 1002.68 1002.64 1002.64 1002.56 1002.48 1002.36 1002.20 1002.04 1001.92 1001.84 1001.76 1001.72 1001.64 1001.68 1001.76 1001.76 1001.76 1001.72 1001.68 1001.76
1015.20 1015.08 1014.96 1014.76 1014.52 1014.28 1014.04 1013.80 1013.60 1013.36 1013.12 1012.88 1012.56 1012.28 1012.04 1011.76 1011.56 1011.32 1011.08 1010.92 1010.68 1010.40 1010.04 1009.76 1009.40 1009.08 1008.84 1008.60 1008.32 1007.92 1007.56 1007.24 1007.00 1006.76 1006.44 1006.04 1005.68 1005.36 1005.04 1004.68 1004.20 1003.72 1003.36 1003.08 1002.88 1002.64 1002.48 1002.28 1002.12 1002.04 1002.04 1002.04 1002.00 1001.92 1001.76 1001.64 1001.48 1001.36 1001.28 1001.20 1001.16 1001.12 1001.12 1001.16 1001.20 1001.16 1001.08 1001.08 1001.16
1015.16 1015.04 1014.92 1014.72 1014.48 1014.24 1014.00 1013.76 1013.52 1013.28 1013.04 1012.76 1012.48 1012.16 1011.88 1011.64 1011.40 1011.16 1010.92 1010.72 1010.48 1010.20 1009.92 1009.52 1009.16 1008.84 1008.56 1008.32 1008.04 1007.68 1007.28 1006.88 1006.56 1006.32 1006.04 1005.68 1005.28 1004.92 1004.60 1004.28 1003.80 1003.32 1002.92 1002.60 1002.32 1002.08 1001.88 1001.64 1001.48 1001.36 1001.36 1001.44 1001.40 1001.36 1001.20 1001.08 1000.96 1000.84 1000.76 1000.68 1000.64 1000.64 1000.60 1000.56 1000.60 1000.60 1000.56 1000.52 1000.56
1015.12 1014.96 1014.80 1014.64 1014.44 1014.20 1013.96 1013.68 1013.40 1013.16 1012.88 1012.64 1012.36 1012.04 1011.76 1011.52 1011.20 1011.00 1010.76 1010.48 1010.24 1009.96 1009.68 1009.32 1008.92 1008.60 1008.32 1008.04 1007.80 1007.48 1007.04 1006.60 1006.20 1005.84 1005.56 1005.28 1004.92 1004.48 1004.16 1003.80 1003.36 1002.92 1002.44 1002.08 1001.80 1001.56 1001.32 1001.08 1000.92 1000.76 1000.72 1000.76 1000.76 1000.76 1000.68 1000.60 1000.48 1000.32 1000.20 1000.08 1000.08 1000.08 1000.04 1000.00 1000.04 1000.04 1000.00 1000.04 1000.04
Thickness
5453 5452 5450 5449 5447 5446 5445 5445 5443 5442 5440 5439 5436 5435 5433 5431 5430 5429 5428 5427 5425 5424 5423 5422 5420 5418 5417 5416 5414 5413 5411 5410 5408 5407 5406 5406 5405 5404 5404 5404 5404 5403 5402 5401 5401 5399 5399 5399 5399 5399 5399 5400 5401 5402 5403 5404 5405 5406 5408 5409 5411 5413 5415 5417 5419 5420 5423 5425 5427
5449 5448 5446 5444 5443 5441 5440 5439 5438 5437 5435 5434 5432 5430 5428 5426 5425 5423 5423 5421 5420 5419 5417 5415 5413 5412 5410 5408 5407 5405 5403 5401 5400 5399 5398 5397 5397 5397 5396 5396 5396 5396 5396 5396 5395 5395 5394 5393 5392 5393 5394 5395 5396 5397 5398 5400 5400 5401 5402 5404 5406 5407 5410 5412 5414 5416 5417 5420 5422
5444 5442 5441 5439 5438 5437 5435 5435 5434 5432 5430 5429 5427 5425 5423 5421 5420 5418 5417 5416 5414 5412 5410 5408 5407 5405 5404 5402 5400 5398 5396 5395 5393 5391 5391 5390 5390 5389 5390 5389 5388 5389 5389 5389 5389 5389 5388 5387 5386 5387 5388 5390 5391 5392 5393 5395 5395 5396 5397 5399 5401 5402 5404 5407 5409 5410 5412 5414 5416
5439 5438 5436 5435 5433 5431 5430 5429 5429 5427 5426 5425 5423 5420 5419 5417 5415 5413 5411 5409 5407 5405 5403 5402 5400 5399 5398 5395 5394 5392 5390 5389 5387 5385 5384 5383 5383 5383 5382 5382 5382 5382 5382 5382 5382 5382 5382 5382 5381 5381 5381 5383 5385 5386 5388 5389 5390 5391 5392 5393 5395 5397 5399 5401 5403 5405 5407 5409 5411
5435 5433 5431 5430 5428 5428 5426 5425 5424 5423 5421 5419 5418 5416 5413 5411 5409 5406 5404 5402 5401 5399 5398 5396 5394 5392 5391 5389 5387 5386 5384 5382 5380 5378 5377 5376 5376 5376 5375 5375 5375 5375 5375 5375 5375 5375 5375 5375 5375 5375 5376 5377 5378 5380 5382 5384 5385 5386 5387 5388 5390 5392 5394 5396 5397 5399 5402 5404 5406
5430 5429 5427 5426 5425 5423 5422 5420 5420 5418 5416 5414 5413 5410 5408 5405 5403 5401 5398 5396 5394 5393 5390 5388 5387 5384 5383 5381 5380 5378 5377 5375 5374 5372 5370 5369 5369 5369 5369 5368 5368 5368 5369 5369 5369 5369 5369 5368 5368 5369 5370 5371 5373 5374 5376 5377 5378 5380 5380 5382 5384 5387 5389 5390 5392 5394 5396 5398 5401
5426 5424 5423 5422 5421 5419 5418 5417 5415 5414 5412 5409 5407 5404 5401 5400 5396 5394 5391 5390 5388 5386 5384 5382 5380 5378 5376 5374 5373 5371 5370 5369 5367 5365 5364 5362 5362 5361 5361 5361 5361 5361 5361 5361 5362 5362 5362 5362 5362 5363 5364 5366 5367 5368 5370 5370 5371 5372 5374 5376 5379 5381 5383 5385 5387 5388 5390 5392 5394
5422 5421 5419 5419 5417 5416 5414 5413 5410 5408 5406 5403 5400 5398 5396 5393 5390 5388 5386 5384 5382 5380 5378 5376 5374 5371 5369 5367 5366 5364 5363 5361 5360 5359 5357 5356 5354 5354 5354 5354 5354 5354 5354 5354 5354 5354 5354 5355 5355 5356 5358 5360 5361 5363 5364 5365 5365 5366 5368 5370 5373 5376 5378 5380 5381 5383 5385 5387 5389
5418 5417 5416 5414 5413 5411 5409 5407 5404 5401 5399 5396 5394 5391 5389 5387 5384 5382 5380 5378 5376 5374 5372 5370 5368 5365 5363 5361 5359 5357 5356 5354 5353 5352 5350 5349 5348 5347 5346 5346 5346 5346 5347 5347 5347 5347 5347 5347 5348 5350 5351 5353 5355 5356 5358 5359 5359 5360 5362 5364 5367 5370 5373 5374 5376 5378 5380 5381 5384
5414 5413 5412 5409 5407 5406 5403 5400 5397 5394 5392 5389 5387 5385 5383 5380 5378 5376 5374 5372 5370 5368 5366 5363 5361 5359 5357 5354 5353 5351 5349 5348 5346 5345 5344 5342 5342 5340 5339 5339 5339 5339 5339 5339 5340 5339 5339 5339 5340 5343 5344 5346 5348 5349 5351 5352 5352 5353 5355 5358 5361 5364 5367 5369 5371 5372 5374 5376 5379
5409 5408 5406 5403 5401 5399 5396 5393 5390 5387 5385 5382 5381 5379 5376 5374 5371 5370 5367 5365 5363 5361 5358 5356 5354 5352 5349 5348 5346 5344 5343 5341 5340 5338 5337 5336 5335 5333 5332 5331 5331 5331 5331 5332 5332 5332 5332 5332 5333 5335 5337 5339 5341 5342 5344 5345 5346 5347 5349 5352 5354 5358 5360 5363 5365 5367 5369 5370 5373
5404 5402 5399 5397 5394 5392 5389 5386 5383 5381 5379 5376 5374 5372 5370 5367 5366 5363 5361 5358 5355 5353 5351 5350 5347 5344 5342 5340 5339 5337 5336 5334 5332 5331 5330 5329 5328 5327 5325 5325 5324 5324 5323 5324 5324 5324 5324 5325 5326 5327 5329 5331 5333 5335 5336 5338 5339 5340 5342 5345 5348 5351 5354 5357 5359 5361 5363 5365 5367
5397 5395 5393 5390 5388 5385 5382 5379 5376 5375 5372 5370 5368 5366 5364 5362 5359 5357 5354 5351 5348 5347 5344 5342 5339 5337 5334 5332 5331 5328 5327 5326 5325 5323 5322 5322 5321 5320 5319 5318 5317 5317 5316 5317 5317 5316 5317 5318 5318 5320 5322 5324 5326 5328 5329 5331 5332 5334 5336 5339 5341 5344 5347 5350 5353 5355 5357 5359 5362
5391 5389 5386 5384 5381 5378 5375 5373 5371 5369 5367 5364 5362 5360 5358 5355 5353 5350 5347 5344 5341 5339 5337 5334 5332 5330 5327 5324 5322 5320 5319 5317 5316 5315 5314 5313 5313 5312 5311 5311 5310 5310 5310 5310 5310 5309 5310 5310 5311 5312 5314 5315 5318 5320 5323 5324 5325 5328 5330 5332 5335 5338 5342 5344 5347 5349 5351 5353 5356
5385 5383 5380 5377 5374 5372 5369 5367 5365 5363 5361 5359 5356 5354 5352 5349 5346 5344 5340 5337 5334 5332 5329 5326 5324 5322 5320 5317 5314 5312 5310 5309 5308 5307 5306 5305 5305 5305 5304 5304 5304 5303 5303 5303 5303 5303 5303 5304 5304 5305 5306 5308 5310 5313 5315 5317 5319 5321 5323 5326 5329 5332 5335 5338 5340 5343 5345 5347 5350
5379 5377 5374 5372 5369 5366 5364 5361 5359 5357 5355 5352 5350 5348 5345 5342 5339 5336 5333 5329 5326 5324 5321 5318 5316 5314 5312 5310 5307 5304 5302 5301 5300 5299 5298 5297 5298 5298 5297 5297 5297 5297 5297 5297 5297 5297 5297 5298 5298 5299 5300 5301 5303 5305 5307 5309 5311 5314 5317 5320 5323 5326 5329 5332 5334 5337 5339 5341 5343
5374 5371 5369 5366 5363 5361 5358 5356 5354 5351 5349 5346 5343 5341 5338 5335 5332 5329 5325 5322 5319 5316 5313 5310 5308 5305 5303 5302 5299 5298 5295 5294 5293 5292 5292 5291 5291 5291 5291 5291 5291 5291 5291 5291 5291 5291 5292 5293 5293 5294 5294 5295 5296 5298 5300 5302 5304 5307 5310 5313 5316 5319 5322 5326 5328 5331 5334 5336 5339
5369 5366 5364 5361 5358 5356 5353 5351 5348 5345 5342 5340 5337 5334 5331 5327 5324 5321 5318 5314 5311 5308 5305 5302 5300 5298 5296 5294 5293 5291 5289 5288 5287 5286 5286 5286 5286 5286 5285 5286 5286 5286 5286 5285 5285 5287 5287 5288 5289 5289 5289 5289 5290 5292 5294 5295 5297 5300 5302 5305 5309 5313 5315 5319 5322 5325 5327 5330 5334
5363 5361 5358 5356 5353 5351 5348 5345 5342 5340 5336 5333 5330 5327 5324 5321 5317 5314 5310 5307 5304 5300 5298 5294 5293 5292 5290 5288 5286 5285 5284 5282 5282 5281 5282 5281 5281 5281 5281 5281 5281 5281 5281 5281 5282 5282 5283 5284 5284 5284 5285 5285 5286 5287 5288 5290 5291 5294 5296 5299 5302 5305 5309 5312 5316 5319 5322 5325 5328
5358 5356 5353 5350 5348 5346 5343 5340 5337 5334 5331 5328 5324 5320 5317 5313 5310 5306 5303 5300 5297 5294 5291 5288 5286 5285 5284 5283 5282 5280 5280 5279 5278 5278 5278 5278 5277 5277 5277 5277 5277 5277 5277 5277 5278 5278 5279 5279 5280 5281 5280 5281 5282 5282 5284 5285 5286 5288 5290 5293 5295 5299 5302 5306 5309 5313 5316 5319 5323
5353 5351 5348 5346 5343 5340 5337 5335 5331 5328 5324 5321 5318 5314 5310 5307 5304 5300 5296 5294 5290 5288 5285 5283 5281 5280 5279 5278 5278 5277 5277 5276 5275 5275 5275 5275 5274 5274 5274 5274 5273 5273 5274 5275 5275 5275 5275 5275 5276 5276 5276 5277 5277 5278 5279 5281 5282 5283 5285 5287 5290 5293 5296 5299 5303 5306 5310 5314 5317
5349 5346 5344 5341 5338 5335 5332 5329 5325 5322 5319 5315 5312 5308 5304 5300 5297 5294 5290 5288 5285 5282 5279 5278 5277 5276 5275 5275 5274 5274 5274 5274 5274 5273 5272 5272 5271 5272 5271 5271 5270 5270 5271 5271 5272 5272 5272 5272 5272 5272 5272 5273 5273 5274 5275 5276 5278 5279 5281 5283 5286 5288 5291 5294 5297 5300 5304 5308 5311
5344 5342 5339 5336 5334 5330 5327 5323 5319 5316 5313 5309 5305 5302 5298 5294 5291 5288 5285 5282 5280 5278 5276 5275 5274 5273 5272 5272 5271 5271 5271 5271 5271 5271 5270 5270 5269 5269 5269 5268 5268 5268 5268 5269 5269 5269 5268 5268 5268 5269 5269 5269 5270 5270 5272 5273 5274 5276 5278 5280 5282 5284 5286 5289 5292 5295 5298 5303 5306
5340 5337 5334 5332 5329 5325 5321 5317 5314 5310 5307 5303 5300 5296 5292 5288 5286 5283 5281 5278 5277 5275 5273 5272 5271 5271 5270 5269 5269 5268 5269 5269 5269 5270 5269 5269 5268 5267 5267 5266 5266 5266 5267 5267 5267 5266 5265 5265 5265 5266 5266 5267 5267 5268 5269 5270 5272 5273 5275 5277 5279 5281 5283 5286 5288 5291 5294 5298 5302
5336 5332 5330 5326 5323 5319 5316 5312 5309 5305 5301 5297 5294 5290 5286 5283 5281 5278 5276 5275 5274 5272 5271 5270 5270 5269 5268 5268 5267 5267 5267 5266 5267 5268 5268 5268 5268 5267 5265 5265 5265 5265 5265 5265 5265 5264 5263 5262 5262 5262 5263 5264 5264 5265 5266 5268 5269 5271 5272 5275 5276 5279 5280 5283 5285 5288 5291 5294 5297
5330 5328 5324 5321 5318 5314 5310 5306 5302 5299 5295 5292 5288 5284 5281 5279 5276 5274 5273 5272 5271 5270 5269 5268 5268 5267 5267 5267 5267 5267 5266 5266 5266 5266 5266 5267 5266 5266 5265 5264 5263 5263 5263 5263 5263 5262 5261 5260 5260 5259 5259 5260 5261 5262 5264 5265 5266 5268 5269 5271 5273 5275 5278 5280 5283 5286 5289 5291 5294
5325 5322 5320 5316 5313 5309 5305 5302 5297 5293 5289 5286 5283 5279 5277 5275 5273 5271 5270 5269 5269 5268 5267 5267 5266 5266 5266 5266 5266 5266 5266 5266 5265 5265 5265 5265 5265 5265 5264 5263 5262 5262 5262 5262 5261 5261 5260 5259 5258 5258 5257 5257 5258 5259 5261 5262 5264 5265 5266 5267 5270 5272 5274 5277 5280 5282 5284 5288 5291
5320 5316 5314 5311 5308 5304 5301 5296 5292 5288 5284 5281 5277 5275 5273 5271 5269 5268 5267 5267 5266 5266 5266 5265 5265 5265 5265 5265 5265 5265 5265 5265 5264 5264 5263 5263 5263 5263 5262 5262 5262 5261 5262 5261 5261 5261 5260 5260 5258 5257 5257 5256 5256 5257 5259 5260 5261 5263 5264 5265 5267 5269 5271 5273 5276 5278 5281 5284 5286
5314 5311 5308 5305 5302 5299 5296 5291 5287 5283 5279 5276 5274 5271 5269 5268 5267 5266 5265 5265 5264 5264 5264 5264 5264 5264 5265 5265 5265 5264 5264 5264 5263 5263 5262 5262 5262 5262 5262 5262 5262 5262 5262 5262 5261 5261 5260 5260 5259 5259 5258 5257 5257 5257 5259 5260 5261 5262 5263 5264 5265 5267 5269 5270 5272 5274 5277 5279 5282
5309 5306 5303 5300 5297 5294 5290 5286 5282 5278 5275 5272 5270 5267 5266 5265 5264 5264 5264 5263 5262 5262 5263 5263 5262 5263 5263 5264 5263 5263 5263 5262 5262 5262 5262 5262 5262 5262 5263 5262 5262 5263 5263 5263 5262 5262 5262 5261 5261 5260 5260 5258 5258 5258 5259 5260 5261 5262 5263 5264 5265 5266 5267 5268 5270 5271 5273 5275 5278
5304 5301 5298 5295 5292 5289 5285 5281 5278 5274 5271 5268 5266 5265 5264 5263 5263 5262 5261 5261 5261 5261 5262 5261 5261 5261 5262 5262 5261 5261 5262 5262 5262 5261 5262 5262 5262 5263 5264 5263 5264 5264 5264 5264 5264 5264 5264 5263 5263 5262 5262 5260 5259 5260 5260 5262 5262 5263 5264 5265 5265 5266 5267 5267 5268 5270 5271 5273 5275
5300 5296 5293 5290 5287 5284 5281 5277 5274 5270 5268 5265 5264 5263 5262 5261 5261 5261 5260 5260 5260 5260 5261 5261 5261 5261 5261 5261 5261 5261 5261 5261 5261 5262 5262 5262 5263 5264 5265 5265 5265 5266 5266 5266 5266 5266 5266 5266 5266 5264 5264 5263 5262 5262 5262 5263 5264 5264 5266 5266 5267 5267 5267 5267 5268 5269 5270 5271 5273
5295 5291 5289 5286 5283 5279 5276 5273 5270 5267 5265 5263 5262 5261 5260 5260 5260 5260 5260 5259 5259 5259 5259 5260 5260 5260 5261 5261 5261 5261 5261 5262 5262 5262 5263 5263 5264 5265 5266 5267 5267 5268 5268 5269 5269 5269 5269 5269 5268 5267 5267 5266 5265 5265 5265 5266 5266 5267 5268 5268 5269 5269 5268 5268 5269 5269 5270 5270 5271
5290 5287 5284 5281 5279 5275 5272 5269 5267 5264 5262 5261 5261 5260 5259 5259 5259 5259 5259 5259 5258 5259 5259 5259 5259 5259 5260 5259 5260 5261 5262 5263 5263 5263 5264 5265 5265 5266 5267 5268 5269 5270 5271 5271 5271 5271 5271 5271 5271 5270 5269 5269 5268 5267 5267 5268 5268 5269 5270 5271 5271 5271 5271 5270 5271 5270 5271 5270 5270
5286 5283 5280 5278 5274 5271 5269 5266 5264 5262 5261 5259 5259 5259 5259 5258 5257 5258 5258 5258 5258 5259 5259 5259 5259 5259 5259 5259 5260 5261 5262 5263 5264 5265 5266 5266 5267 5268 5269 5271 5272 5272 5273 5273 5273 5274 5274 5274 5273 5273 5272 5271 5270 5270 5270 5271 5271 5272 5273 5273 5273 5273 5273 5272 5272 5272 5272 5271 5271
5281 5278 5275 5273 5270 5267 5265 5262 5261 5260 5259 5258 5257 5257 5258 5258 5258 5257 5257 5258 5258 5258 5259 5259 5259 5259 5260 5260 5261 5261 5262 5263 5264 5266 5267 5267 5268 5270 5271 5273 5274 5275 5276 5276 5276 5276 5277 5276 5276 5276 5275 5273 5273 5273 5274 5274 5275 5275 5275 5275 5276 5275 5275 5275 5274 5274 5274 5274 5273
5277 5273 5270 5267 5266 5264 5261 5260 5258 5257 5256 5256 5256 5256 5256 5257 5257 5257 5257 5256 5257 5257 5259 5259 5260 5260 5260 5260 5262 5262 5264 5264 5265 5267 5268 5270 5271 5272 5273 5275 5277 5278 5278 5278 5278 5279 5279 5279 5280 5279 5277 5277 5276 5276 5276 5276 5277 5278 5278 5278 5278 5279 5278 5277 5277 5277 5276 5276 5275
5273 5269 5266 5263 5262 5260 5258 5257 5255 5255 5255 5255 5255 5255 5255 5255 5256 5256 5256 5255 5256 5257 5258 5259 5260 5260 5260 5261 5262 5263 5265 5266 5266 5268 5269 5271 5273 5273 5275 5276 5278 5280 5281 5281 5281 5282 5282 5283 5283 5282 5281 5280 5279 5279 5279 5279 5280 5280 5281 5281 5281 5281 5281 5279 5279 5279 5279 5279 5278
5269 5265 5262 5260 5257 5256 5255 5254 5253 5253 5252 5253 5254 5254 5255 5255 5255 5255 5255 5255 5255 5256 5257 5258 5260 5261 5261 5262 5263 5265 5267 5268 5269 5270 5271 5273 5274 5275 5276 5277 5280 5282 5283 5284 5285 5285 5286 5286 5286 5286 5284 5282 5282 5281 5282 5282 5282 5283 5283 5283 5283 5283 5283 5282 5282 5281 5281 5282 5281
5264 5261 5259 5255 5254 5253 5252 5252 5251 5251 5251 5251 5252 5253 5253 5254 5254 5255 5255 5254 5255 5255 5257 5258 5260 5261 5262 5262 5264 5266 5268 5270 5271 5272 5273 5274 5276 5277 5278 5279 5281 5283 5285 5286 5287 5288 5288 5289 5289 5289 5288 5286 5285 5284 5284 5284 5284 5285 5285 5285 5285 5285 5285 5285 5284 5284 5284 5284 5283
5261 5258 5255 5253 5251 5250 5249 5249 5249 5249 5250 5250 5251 5251 5252 5252 5253 5254 5254 5255 5255 5256 5257 5258 5261 5262 5263 5264 5264 5266 5268 5271 5273 5275 5276 5276 5277 5279 5280 5281 5283 5285 5288 5289 5290 5290 5291 5292 5292 5292 5291 5290 5288 5288 5287 5287 5287 5287 5287 5287 5287 5286 5286 5286 5286 5285 5285 5285 5285